TimeEDT,TemperatureF,Dew PointF,Humidity,Sea Level PressureIn,VisibilityMPH,Wind Direction,Wind SpeedMPH,Gust SpeedMPH,PrecipitationIn,Events,Conditions,WindDirDegrees,DateUTC
12:15 AM,48.2,45.7,91,30.18,10.0,Calm,Calm,-,N/A,,Scattered Clouds,0,2013-10-28 04:15:00
12:35 AM,47.3,44.8,91,30.18,7.0,Calm,Calm,-,N/A,,Mostly Cloudy,0,2013-10-28 04:35:00
12:55 AM,46.2,44.2,93,30.18,7.0,Calm,Calm,-,N/A,,Scattered Clouds,0,2013-10-28 04:55:00
1:15 AM,44.6,42.8,93,30.18,7.0,Calm,Calm,-,N/A,,Clear,0,2013-10-28 05:15:00
1:35 AM,42.8,41.2,94,30.18,5.0,Calm,Calm,-,N/A,,Scattered Clouds,0,2013-10-28 05:35:00
1:55 AM,43.3,42.1,95,30.18,5.0,Calm,Calm,-,N/A,,Mostly Cloudy,0,2013-10-28 05:55:00
2:15 AM,43.3,42.1,95,30.18,7.0,Calm,Calm,-,N/A,,Overcast,0,2013-10-28 06:15:00
2:35 AM,44.6,43.5,96,30.18,7.0,Calm,Calm,-,N/A,,Overcast,0,2013-10-28 06:35:00
2:55 AM,44.1,43.0,96,30.18,5.0,Calm,Calm,-,N/A,,Overcast,0,2013-10-28 06:55:00
3:15 AM,44.8,43.9,97,30.19,7.0,Calm,Calm,-,N/A,,Overcast,0,2013-10-28 07:15:00
3:35 AM,45.0,44.1,97,30.18,7.0,Calm,Calm,-,N/A,,Overcast,0,2013-10-28 07:35:00
3:55 AM,45.7,44.8,97,30.19,7.0,Calm,Calm,-,N/A,,Overcast,0,2013-10-28 07:55:00
4:15 AM,46.4,45.5,97,30.20,7.0,Calm,Calm,-,N/A,,Overcast,0,2013-10-28 08:15:00
4:35 AM,46.4,45.5,97,30.20,7.0,Calm,Calm,-,N/A,,Overcast,0,2013-10-28 08:35:00
4:55 AM,46.8,45.9,97,30.21,7.0,Calm,Calm,-,N/A,Rain,Rain,0,2013-10-28 08:55:00
5:15 AM,46.9,46.4,98,30.21,7.0,Calm,Calm,-,N/A,Rain,Light Rain,0,2013-10-28 09:15:00
5:35 AM,47.3,46.4,97,30.22,5.0,Calm,Calm,-,N/A,Rain,Rain,0,2013-10-28 09:35:00
5:55 AM,47.3,46.8,98,30.23,5.0,Calm,Calm,-,N/A,Rain,Rain,0,2013-10-28 09:55:00
6:15 AM,47.3,46.8,98,30.23,5.0,Calm,Calm,-,N/A,Rain,Light Rain,0,2013-10-28 10:15:00
6:35 AM,47.3,46.8,98,30.23,5.0,Calm,Calm,-,N/A,,Drizzle,0,2013-10-28 10:35:00
6:55 AM,47.3,46.6,97,30.24,4.0,Calm,Calm,-,N/A,Rain,Light Rain,0,2013-10-28 10:55:00
7:15 AM,47.3,46.6,97,30.23,4.0,Calm,Calm,-,N/A,Rain,Light Rain,0,2013-10-28 11:15:00
7:35 AM,47.3,46.6,97,30.25,4.0,Calm,Calm,-,N/A,Rain,Light Rain,0,2013-10-28 11:35:00
7:55 AM,47.3,46.6,97,30.25,4.0,Calm,Calm,-,N/A,,Drizzle,0,2013-10-28 11:55:00
8:15 AM,47.3,46.6,97,30.26,4.0,Calm,Calm,-,N/A,Rain,Light Rain,0,2013-10-28 12:15:00
8:35 AM,47.3,46.4,97,30.27,2.5,Calm,Calm,-,N/A,,Light Drizzle,0,2013-10-28 12:35:00
8:55 AM,47.7,46.9,97,30.27,3.0,Calm,Calm,-,N/A,,Overcast,0,2013-10-28 12:55:00
9:15 AM,48.2,47.3,97,30.28,4.0,Calm,Calm,-,N/A,,Overcast,0,2013-10-28 13:15:00
9:35 AM,49.1,48.4,97,30.28,5.0,Calm,Calm,-,N/A,,Overcast,0,2013-10-28 13:35:00
9:55 AM,49.5,49.1,99,30.29,7.0,Calm,Calm,-,N/A,Rain,Light Rain,0,2013-10-28 13:55:00
10:15 AM,50.0,49.6,99,30.29,5.0,Calm,Calm,-,N/A,,Light Drizzle,0,2013-10-28 14:15:00
10:35 AM,51.1,50.5,98,30.29,7.0,Calm,Calm,-,N/A,Rain,Light Rain,0,2013-10-28 14:35:00
10:55 AM,51.8,50.9,97,30.30,10.0,Calm,Calm,-,N/A,,Scattered Clouds,0,2013-10-28 14:55:00
11:15 AM,53.1,51.8,95,30.30,10.0,Calm,Calm,-,N/A,,Scattered Clouds,0,2013-10-28 15:15:00
11:35 AM,53.6,51.6,93,30.30,10.0,Calm,Calm,-,N/A,,Mostly Cloudy,0,2013-10-28 15:35:00
11:55 AM,55.6,51.6,87,30.29,10.0,Calm,Calm,-,N/A,,Mostly Cloudy,0,2013-10-28 15:55:00
12:15 PM,58.5,50.4,74,30.29,10.0,Calm,Calm,-,N/A,,Scattered Clouds,0,2013-10-28 16:15:00
12:35 PM,59.7,49.1,68,30.28,10.0,Calm,Calm,-,N/A,,Clear,0,2013-10-28 16:35:00
12:55 PM,61.9,47.8,60,30.27,10.0,Calm,Calm,-,N/A,,Scattered Clouds,0,2013-10-28 16:55:00
1:15 PM,62.8,47.7,58,30.27,10.0,Calm,Calm,-,N/A,,Mostly Cloudy,0,2013-10-28 17:15:00
1:35 PM,62.6,48.0,59,30.25,10.0,Calm,Calm,-,N/A,,Overcast,0,2013-10-28 17:35:00
1:55 PM,63.9,47.8,56,30.25,10.0,Calm,Calm,-,N/A,,Overcast,0,2013-10-28 17:55:00
2:15 PM,62.6,47.7,58,30.24,10.0,Calm,Calm,-,N/A,,Overcast,0,2013-10-28 18:15:00
2:35 PM,63.0,47.7,57,30.24,10.0,Calm,Calm,-,N/A,,Overcast,0,2013-10-28 18:35:00
2:55 PM,62.1,47.5,59,30.24,10.0,NW,3.5,-,N/A,,Overcast,320,2013-10-28 18:55:00
3:15 PM,61.9,48.0,60,30.23,10.0,Calm,Calm,-,N/A,,Overcast,0,2013-10-28 19:15:00
3:35 PM,62.1,48.0,60,30.23,10.0,Calm,Calm,-,N/A,,Overcast,0,2013-10-28 19:35:00
3:55 PM,62.2,46.8,57,30.23,10.0,Calm,Calm,-,N/A,,Overcast,0,2013-10-28 19:55:00
4:15 PM,62.6,46.2,55,30.23,10.0,Calm,Calm,-,N/A,,Overcast,0,2013-10-28 20:15:00
4:35 PM,62.6,45.9,54,30.23,10.0,Calm,Calm,-,N/A,,Overcast,0,2013-10-28 20:35:00
4:55 PM,61.7,47.1,59,30.23,10.0,Calm,Calm,-,N/A,,Overcast,0,2013-10-28 20:55:00
5:15 PM,61.3,47.1,60,30.24,10.0,Calm,Calm,-,N/A,,Overcast,0,2013-10-28 21:15:00
5:35 PM,60.3,49.6,68,30.25,10.0,Calm,Calm,-,N/A,,Overcast,0,2013-10-28 21:35:00
5:55 PM,59.0,50.2,73,30.25,10.0,Calm,Calm,-,N/A,,Overcast,0,2013-10-28 21:55:00
6:15 PM,58.3,50.5,75,30.25,10.0,Calm,Calm,-,N/A,,Overcast,0,2013-10-28 22:15:00
6:35 PM,57.6,50.7,78,30.25,10.0,Calm,Calm,-,N/A,,Overcast,0,2013-10-28 22:35:00
6:55 PM,57.0,50.4,78,30.26,10.0,Calm,Calm,-,N/A,,Overcast,0,2013-10-28 22:55:00
7:15 PM,56.1,50.5,82,30.26,10.0,Calm,Calm,-,N/A,,Overcast,0,2013-10-28 23:15:00
7:35 PM,55.9,49.6,79,30.27,10.0,Calm,Calm,-,N/A,,Overcast,0,2013-10-28 23:35:00
7:55 PM,55.4,50.5,84,30.28,10.0,Calm,Calm,-,N/A,,Overcast,0,2013-10-28 23:55:00
8:15 PM,55.2,51.1,86,30.29,10.0,Calm,Calm,-,N/A,,Overcast,0,2013-10-29 00:15:00
8:35 PM,55.4,50.5,84,30.29,10.0,Calm,Calm,-,N/A,Rain,Rain,0,2013-10-29 00:35:00
8:55 PM,54.7,51.1,88,30.30,10.0,Calm,Calm,-,N/A,,Overcast,0,2013-10-29 00:55:00
9:15 PM,54.5,51.4,89,30.30,10.0,Calm,Calm,-,N/A,,Overcast,0,2013-10-29 01:15:00
9:35 PM,54.1,51.8,92,30.30,10.0,Calm,Calm,-,N/A,,Overcast,0,2013-10-29 01:35:00
9:55 PM,54.1,51.4,91,30.30,10.0,Calm,Calm,-,N/A,,Overcast,0,2013-10-29 01:55:00
10:15 PM,54.0,51.1,90,30.31,10.0,Calm,Calm,-,N/A,,Overcast,0,2013-10-29 02:15:00
10:35 PM,52.5,50.4,92,30.32,10.0,Calm,Calm,-,N/A,,Overcast,0,2013-10-29 02:35:00
10:55 PM,51.8,50.5,95,30.32,10.0,Calm,Calm,-,N/A,,Overcast,0,2013-10-29 02:55:00
11:15 PM,52.0,50.9,96,30.31,10.0,Calm,Calm,-,N/A,,Overcast,0,2013-10-29 03:15:00
11:35 PM,51.4,50.2,95,30.32,10.0,Calm,Calm,-,N/A,,Overcast,0,2013-10-29 03:35:00
11:55 PM,51.1,50.0,96,30.32,10.0,Calm,Calm,-,N/A,,Overcast,0,2013-10-29 03:55:00